Location: Carrer del Canonge
(41.4901°N, 2.2931°E)
Time: 02:59:27
(UTC+00:00)

SPOT 3 Rocket - Pass Details

Date: 27 June 2021
Orbit: 779 x 794 km, 98.7° (Epoch: 01 August)

Event Time Altitude Azimuth Distance (km) Brightness Sun altitude
Exits shadow 20:54:21 10° 178° (S) 2,329 5.5 -13.0°
Maximum altitude 20:59:26 61° 258° (WSW) 891 4.0 -13.6°
Drops below altitude 10° 21:04:36 10° 339° (NNW) 2,365 7.2 -14.3°
Sets 21:06:58 0° 343° (NNW) 3,300 8.1 -14.6°
